sat.trackr.live / text

‹ back to catalog

STARLINK-1622

NORAD 46128 · 2020-057M

PAYLOAD ACTIVE UNKNOWN

§ Identity

Operator
Country
US
Launch date
2020-08-18
Launch site
AFETR
Launch vehicle
Mass (kg)
RCS (m²)

Purposes: comms

External: N2YO · Heavens-Above · Gunter

§ Orbital elements

Epoch: 2026-07-22T02:03:48.119040Z

Period
87.50 min
Inclination
52.9918°
Eccentricity
0.0005316
Mean motion
16.45705172 rev/d
Perigee alt
147.2 km
Apogee alt
154.1 km
Semi-major
6,528.8 km
B*
2.6698e-4
RAAN
267.4076°
Arg perigee
317.7592°
Mean anomaly
42.3046°
Rev number
32,863

§ Raw data

STARLINK-16221 46128U 20057M   26203.08597360  .10593396  12589-4  26698-3 0  99952 46128  52.9918 267.4076 0005316 317.7592  42.3046 16.45705172328637

JSON: /api/v1/satellites/46128 · /tle

For live sub-satellite position, see the globe view (requires WebGL).

§ Visibility from observer

Set your observer location to see the next 7 days of passes ≥ 10°. The values pass through the URL so the page stays shareable.

No JS? Fill the form by hand. The geolocation button needs JavaScript.